SHLBYV-WX Weather Reports


Display with metric or nautical units.
time (UTC)temp
F
wind
direction
speed
MPH
gust
MPH
rain 1hr
in
rain 24hr
in
rain mn
in
humidity
%
barometer
mb
20260509043106 46 166 6.0 0.0 0.00 0.00 0.00 52 976.7
20260509041550 47 165 6.0 0.0 0.00 0.00 0.00 52 976.8
20260509040127 47 165 6.0 0.0 0.00 0.00 0.00 52 976.8
20260509034550 47 174 6.0 0.0 0.00 0.00 0.00 49 977.7
20260509033105 47 180 6.0 0.0 0.00 0.00 0.00 49 978.4
20260509031550 48 174 6.0 0.0 0.00 0.00 0.00 49 978.4
20260509030123 48 172 6.0 0.0 0.00 0.00 0.00 49 978.4
20260509024549 49 174 6.0 0.0 0.00 0.00 0.00 33 978.4
20260509023108 49 167 6.0 0.0 0.00 0.00 0.00 35 978.6
20260509021550 51 188 6.0 0.0 0.00 0.00 0.00 35 978.6
20260509020119 51 204 4.0 0.0 0.00 0.00 0.00 35 978.6
20260509014548 52 222 2.0 0.0 0.00 0.00 0.00 40 978.3
20260509013103 52 243 2.0 0.0 0.00 0.00 0.00 40 978.3
20260509011549 52 282 3.0 0.0 0.00 0.00 0.00 40 978.3
20260509010116 53 289 4.0 0.0 0.00 0.00 0.00 40 978.3
20260509004547 54 295 4.0 0.0 0.00 0.00 0.00 36 977.9
20260509003107 55 278 4.0 0.0 0.00 0.00 0.00 34 979.2
20260509001548 56 283 4.0 0.0 0.00 0.00 0.00 34 979.2
20260509000128 57 285 4.0 0.0 0.00 0.00 0.00 34 979.2
20260508234549 58 278 6.0 0.0 0.00 0.00 0.00 28 978.6
20260508233109 59 273 7.0 0.0 0.00 0.00 0.00 23 979.1
20260508231551 59 268 7.0 0.0 0.00 0.00 0.00 23 979.1
20260508230115 60 268 8.0 0.0 0.00 0.00 0.00 23 979.1
20260508224550 60 270 8.0 0.0 0.00 0.00 0.00 24 979.2
20260508223109 60 280 9.0 0.0 0.00 0.00 0.00 23 980.1
20260508221552 60 280 10.0 0.0 0.00 0.00 0.00 23 980.1
20260508220116 60 281 10.0 0.0 0.00 0.00 0.00 23 980.1
20260508214551 61 281 10.0 0.0 0.00 0.00 0.00 23 980.7
20260508213108 61 277 11.0 0.0 0.00 0.00 0.00 24 980.0
20260508211551 61 261 10.0 0.0 0.00 0.00 0.00 24 980.0
20260508210120 61 256 11.0 0.0 0.00 0.00 0.00 24 980.0
20260508204551 62 253 11.0 0.0 0.00 0.00 0.00 26 980.4
20260508203109 62 251 11.0 0.0 0.00 0.00 0.00 24 979.9
20260508201551 62 249 10.0 0.0 0.00 0.00 0.00 24 980.0
20260508200117 62 248 10.0 0.0 0.00 0.00 0.00 24 980.0
20260508194552 62 244 10.0 0.0 0.00 0.00 0.00 21 980.2
20260508193106 62 238 10.0 0.0 0.00 0.00 0.00 21 980.2
20260508191550 62 253 10.0 0.0 0.00 0.00 0.00 21 980.2
20260508190114 62 257 10.0 0.0 0.00 0.00 0.00 21 980.2
20260508184551 62 247 10.0 0.0 0.00 0.00 0.00 29 980.8
20260508183110 62 235 8.0 0.0 0.00 0.00 0.00 30 980.4
20260508181551 61 234 9.0 0.0 0.00 0.00 0.00 30 980.3
20260508180121 61 239 9.0 0.0 0.00 0.00 0.00 30 980.3
20260508174551 60 242 10.0 0.0 0.00 0.00 0.00 34 981.4
20260508173110 60 247 10.0 0.0 0.00 0.00 0.00 34 981.4
20260508171551 60 243 10.0 0.0 0.00 0.00 0.00 34 981.4
20260508170116 59 241 10.0 0.0 0.00 0.00 0.00 34 981.4
20260508164551 59 238 9.0 0.0 0.00 0.00 0.00 37 981.5
20260508163109 58 228 9.0 0.0 0.00 0.00 0.00 37 981.8
20260508161551 57 222 8.0 0.0 0.00 0.00 0.00 37 981.8
20260508160121 56 223 7.0 0.0 0.00 0.00 0.00 37 981.8
20260508154551 56 222 6.0 0.0 0.00 0.00 0.00 47 982.7
20260508153111 55 200 6.0 0.0 0.00 0.00 0.00 51 981.8
20260508151551 54 195 6.0 0.0 0.00 0.00 0.00 51 981.8
20260508150121 53 197 5.0 0.0 0.00 0.00 0.00 51 981.8
20260508144551 52 191 4.0 0.0 0.00 0.00 0.00 64 981.9
20260508143109 52 190 5.0 0.0 0.00 0.00 0.00 56 982.0
20260508141552 51 185 5.0 0.0 0.00 0.00 0.00 56 982.0
20260508140129 50 180 5.0 0.0 0.00 0.00 0.00 59 981.8
20260508134551 50 172 4.0 0.0 0.00 0.00 0.00 68 981.7
20260508133106 47 174 6.0 0.0 0.00 0.00 0.00 68 981.7
20260508131551 46 176 6.0 0.0 0.00 0.00 0.00 68 981.7
20260508130125 45 173 5.0 0.0 0.00 0.00 0.00 68 981.7
20260508124551 44 178 5.0 0.0 0.00 0.00 0.00 83 981.0
20260508123110 42 182 5.0 0.0 0.00 0.00 0.00 84 981.7
20260508121551 41 177 4.0 0.0 0.00 0.00 0.00 84 981.7
20260508120136 39 167 2.0 0.0 0.00 0.00 0.00 84 981.7
20260508114551 38 164 3.0 0.0 0.00 0.00 0.00 86 981.0
20260508113112 37 166 3.0 0.0 0.00 0.00 0.00 82 981.6
20260508111551 37 158 4.0 0.0 0.00 0.00 0.00 82 981.7
20260508110117 36 165 5.0 0.0 0.00 0.00 0.00 82 981.7
20260508104553 36 166 5.0 0.0 0.00 0.00 0.00 82 980.7
20260508103111 36 161 5.0 0.0 0.00 0.00 0.00 81 981.8
20260508101554 37 162 4.0 0.0 0.00 0.00 0.00 81 981.8
20260508100117 37 150 3.0 0.0 0.00 0.00 0.00 81 981.8
20260508094552 37 141 3.0 0.0 0.00 0.00 0.00 83 981.1
20260508093107 37 132 2.0 0.0 0.00 0.00 0.00 82 981.7
20260508091553 37 148 3.0 0.0 0.00 0.00 0.00 82 981.7
20260508090122 38 150 3.0 0.0 0.00 0.00 0.00 82 981.7
20260508084553 38 155 3.0 0.0 0.00 0.00 0.00 81 981.3
20260508083111 38 161 4.0 0.0 0.00 0.00 0.00 82 981.1
20260508081553 38 185 4.0 0.0 0.00 0.00 0.00 82 981.1
20260508080123 38 177 4.0 0.0 0.00 0.00 0.00 82 981.1
20260508074553 39 177 3.0 0.0 0.00 0.00 0.00 82 981.9
20260508073112 39 180 3.0 0.0 0.00 0.00 0.00 82 981.9
20260508071552 39 194 4.0 0.0 0.00 0.00 0.00 82 982.0
20260508070123 40 193 4.0 0.0 0.00 0.00 0.00 82 982.0
20260508064552 40 191 3.0 0.0 0.00 0.00 0.00 82 981.5
20260508063108 40 175 5.0 0.0 0.00 0.00 0.00 82 982.0
20260508061551 40 183 4.0 0.0 0.00 0.00 0.00 82 982.0
20260508060138 41 188 3.0 0.0 0.00 0.00 0.00 82 982.0
20260508054551 41 180 2.0 0.0 0.00 0.00 0.00 77 982.7
20260508053112 41 189 4.0 0.0 0.00 0.00 0.00 82 982.5
20260508051550 41 169 4.0 0.0 0.00 0.00 0.00 82 982.5
20260508050125 41 174 4.0 0.0 0.00 0.00 0.00 82 982.5
20260508044550 42 176 3.0 0.0 0.00 0.00 0.00 78 982.8